Volver al catálogo

STARLINK-38072

ActivoComunicacionesSSO
NORAD 100113·PAYLOAD·🇺🇸 United States

Lanzado Jul 21, 2026 desde Vandenberg Space Force Base

Loading…

Próximos Pases (próximas 24 horas)

TLE

ActualizadoSource: Space-Track

Época: Sep 14, 2026, 07:39 UTC

1 A0113U 26166N   26257.31879451  .00002042  00000-0  14558-4 0  9991
2 A0113  97.2823 275.4148 0001411  92.5741 267.5686 15.75181372  8631

Sigue STARLINK-38072 en tiempo real con AllMySat

Download on the App Store